Wind_Speed
33 31 30 30 29 28 27 26 25 24 25 25 25 25 26 27 28 30 31 32 33 34 34 35 37 38 40 42 43 44 45 45 45 45 44 45 47 48 50 52 55 58 60
34 31 30 30 29 28 27 26 25 25 25 25 26 26 27 28 30 31 33 34 34 35 36 38 40 41 43 44 44 45 46 47 47 47 47 47 48 51 54 57 60 63 66
33 31 30 30 29 28 27 27 26 26 26 26 26 27 28 30 32 33 34 35 37 38 40 41 42 43 44 45 45 46 47 48 50 51 53 54 55 55 57 60 64 67 69
33 30 30 30 29 28 27 27 26 26 26 27 27 29 30 32 33 35 36 38 39 40 41 42 43 44 45 46 46 47 49 50 52 55 58 61 64 66 66 65 66 68 69
32 29 30 30 29 27 26 26 26 26 26 27 28 30 32 33 35 37 38 39 40 41 42 43 44 45 46 47 48 50 52 54 56 59 62 65 69 72 75 74 72 71 71
31 30 30 29 28 27 26 25 25 25 26 27 29 31 32 34 36 37 39 40 41 42 43 44 45 46 47 48 50 53 55 58 61 64 67 69 70 72 74 76 77 77 76
30 30 30 29 28 27 26 25 25 25 26 28 29 31 33 35 36 38 39 40 41 42 43 44 46 47 49 51 53 55 58 62 65 67 69 71 72 74 76 78 79 80 81
30 30 30 29 27 26 25 25 25 25 27 28 29 31 33 35 37 38 40 41 42 43 44 46 47 49 51 53 56 59 62 65 67 68 70 71 73 75 79 83 86 87 88
30 30 28 27 26 25 24 24 25 25 27 28 29 31 33 35 37 39 40 41 43 44 46 47 49 50 53 56 59 62 64 66 68 68 70 72 75 79 83 88 93 98 99
29 28 26 25 24 24 24 24 24 25 26 28 30 32 34 36 37 39 41 42 44 45 47 48 50 53 56 59 62 64 65 66 68 69 72 75 80 84 89 95 100 106 111
26 25 24 23 22 22 22 23 24 25 27 29 31 32 34 36 38 40 42 43 45 46 48 50 53 55 59 61 63 64 66 67 69 72 76 81 86 91 96 101 106 111 114
25 24 23 21 21 20 21 22 24 26 27 29 31 33 35 37 39 41 43 44 46 48 50 52 55 58 61 63 64 65 66 69 73 77 82 87 93 98 103 107 111 112 111
23 21 20 20 20 21 22 23 25 26 28 30 32 34 36 38 40 42 44 46 48 50 52 55 58 61 62 63 64 66 69 73 78 84 89 94 99 104 108 111 111 108 103
21 20 20 20 20 21 22 23 25 27 29 31 33 35 38 40 42 43 45 47 49 52 55 58 60 62 62 64 66 69 73 79 84 90 95 101 105 109 111 110 106 100 93
19 19 19 19 20 21 22 24 26 28 31 33 35 37 39 41 43 45 47 48 51 55 58 60 61 62 63 66 69 73 79 84 90 95 101 106 109 110 109 104 98 90 84
19 19 19 19 20 21 23 25 27 30 32 34 36 38 40 42 44 46 48 51 54 57 59 61 61 63 65 69 74 79 84 90 96 101 105 108 108 105 99 92 86 80 75
19 19 19 20 20 22 24 27 29 31 33 35 37 39 41 43 45 47 50 53 56 58 60 61 62 65 69 74 79 84 90 95 101 105 107 107 103 96 89 82 75 68 63
20 20 20 21 22 24 26 28 30 32 34 36 38 40 43 44 46 49 52 55 57 58 59 61 64 68 73 79 84 89 94 100 104 106 105 101 93 86 80 73 65 57 50
20 20 22 23 24 26 28 29 31 33 35 37 40 41 43 45 48 51 54 56 57 58 60 64 68 73 78 83 89 94 99 102 104 102 98 92 84 77 71 63 54 46 39
20 21 23 25 26 27 28 30 32 34 36 38 40 41 44 47 50 53 55 55 57 59 62 67 72 77 83 88 94 99 102 103 101 94 87 81 75 67 59 52 44 36 30
21 22 23 25 26 27 28 30 32 34 36 38 40 43 45 49 52 53 54 55 57 61 65 70 76 82 87 93 98 102 103 100 94 85 77 70 63 56 48 42 35 30 25
20 21 22 23 25 27 29 31 33 35 37 39 41 44 47 50 52 52 54 56 59 64 68 74 79 85 91 96 100 101 99 93 85 76 68 60 52 45 39 33 28 25 21
19 20 22 24 26 28 30 32 34 35 37 40 43 46 49 50 51 53 55 58 63 67 72 77 82 87 93 98 100 97 90 83 75 67 58 50 43 36 31 27 23 20 19
19 21 23 25 27 29 30 32 34 36 39 42 45 47 48 50 51 54 57 62 66 71 76 81 85 90 95 98 96 89 81 73 65 56 47 40 34 30 26 22 20 20 19
20 22 24 26 27 29 31 33 35 38 41 43 45 47 48 50 52 56 61 65 70 76 80 85 90 94 96 95 90 81 73 64 55 46 38 31 27 25 24 22 21 20 20
20 22 24 26 28 30 32 35 37 40 42 44 45 47 49 51 54 59 64 69 74 79 84 89 93 96 94 88 79 71 64 55 46 37 30 25 23 21 20 20 20 21 21
Wind_Direction
238 238 239 242 245 249 251 249 248 249 252 256 260 264 269 274 279 284 288 291 292 292 293 293 294 295 295 295 295 295 295 294 293 291 291 291 291 292 292 292 293 293 292
234 235 236 239 242 247 249 250 250 251 254 258 262 266 271 276 282 286 289 291 292 293 293 294 295 296 296 296 296 295 295 295 294 293 292 291 292 294 295 295 295 295 295
231 232 233 236 240 244 247 249 251 253 256 259 262 267 273 278 283 287 290 291 292 294 294 295 296 296 297 297 297 297 297 297 297 297 296 295 294 292 293 294 295 295 294
228 229 231 234 237 241 244 247 250 252 255 259 263 269 274 279 283 286 289 291 293 294 295 295 296 297 298 298 298 298 298 298 299 299 299 299 299 297 296 295 295 295 295
226 226 228 231 234 237 242 245 248 251 255 260 265 270 275 279 283 286 289 291 293 294 295 296 297 298 298 299 299 299 300 300 300 300 300 300 300 300 300 299 298 297 297
224 225 227 229 232 236 241 245 248 252 257 262 266 271 276 280 283 286 289 291 293 295 296 296 297 298 299 299 300 300 301 301 301 301 301 301 301 301 300 300 299 298 298
224 225 226 228 232 236 241 245 249 254 259 263 268 273 277 281 284 287 289 292 294 296 297 297 298 299 299 300 300 301 301 302 302 303 303 303 303 303 302 302 301 300 300
221 222 224 227 232 237 242 247 252 256 261 266 270 274 278 282 285 288 290 293 295 296 297 298 299 299 300 300 301 302 303 303 304 304 304 304 304 305 305 304 303 302 301
219 220 222 227 232 237 243 249 254 259 264 268 272 276 280 283 287 289 291 293 295 297 298 299 300 300 300 301 302 304 304 305 305 305 305 306 306 306 307 307 306 305 304
216 218 221 226 231 238 245 251 257 262 267 271 275 279 282 286 288 290 292 294 296 298 299 299 300 301 302 303 304 305 306 306 306 306 307 307 308 308 308 308 308 308 307
212 214 219 225 232 239 247 254 261 266 270 274 278 282 285 288 289 291 293 295 297 298 299 300 301 303 304 305 306 306 307 307 308 308 309 309 309 309 309 309 309 309 308
209 213 218 226 234 243 251 259 265 269 273 277 281 284 287 289 290 292 295 297 298 300 301 302 304 305 306 307 307 308 308 309 309 310 310 311 311 311 311 310 310 309 308
210 216 222 231 240 249 256 262 267 272 276 280 283 286 288 290 292 294 297 299 300 301 303 304 306 307 307 307 308 309 310 311 311 312 312 312 312 312 312 311 311 310 308
213 220 228 237 245 252 259 265 270 275 278 282 285 287 289 291 294 297 299 300 301 303 305 306 307 307 308 308 309 311 312 312 313 313 313 313 314 313 313 312 311 310 308
217 225 233 241 249 256 263 269 273 277 281 284 287 289 291 294 296 298 299 301 303 305 306 307 308 308 309 310 311 312 313 314 314 314 315 315 315 314 314 313 312 310 309
221 230 239 247 254 261 267 272 276 280 283 286 288 290 293 296 298 299 300 303 305 306 308 308 309 309 311 312 313 314 315 315 316 316 316 316 316 315 314 313 312 311 310
227 236 245 253 261 266 271 276 279 283 286 287 290 292 295 297 298 300 302 304 306 308 308 309 310 311 312 313 314 315 316 317 317 317 317 317 317 315 314 313 313 312 310
235 243 252 259 265 270 275 279 282 285 286 289 291 294 296 297 300 302 304 306 307 308 309 310 311 312 314 315 316 317 318 318 318 318 318 318 317 316 315 315 315 314 313
243 251 257 263 269 274 277 281 283 285 288 290 293 294 296 299 301 303 305 307 308 309 310 312 313 314 315 316 317 318 319 319 320 320 319 318 317 317 316 317 317 318 316
251 256 262 267 272 276 279 281 284 286 289 291 293 295 298 300 302 304 306 307 309 310 312 313 314 316 317 318 319 319 320 320 320 320 320 318 318 318 318 318 320 321 320
256 260 265 269 273 276 279 282 285 288 290 292 294 296 298 301 304 306 307 309 310 312 313 315 317 318 319 320 321 321 321 322 322 322 321 320 319 319 319 321 323 325 325
259 263 268 271 275 278 282 285 287 289 291 293 295 298 300 303 305 307 308 310 311 313 315 317 318 319 320 321 322 322 323 323 323 323 322 322 321 322 322 324 327 328 329
263 268 272 276 279 282 285 287 289 291 293 295 297 300 303 305 307 308 310 311 313 315 317 318 319 320 321 322 323 323 323 323 323 324 324 324 324 325 326 328 331 333 334
270 274 278 281 283 285 287 289 291 293 295 297 300 303 305 307 309 310 312 313 315 317 318 319 320 321 322 323 324 324 324 323 324 324 324 325 326 328 332 335 338 339 340
276 279 282 284 285 288 290 291 293 294 297 299 302 305 307 309 311 312 314 316 317 318 319 321 322 323 323 324 325 325 325 325 325 326 326 327 329 332 335 338 341 343 343
280 283 285 287 289 290 291 292 294 296 299 302 305 307 309 311 313 315 317 318 319 320 321 322 323 324 325 325 325 326 325 326 327 328 329 331 334 337 339 340 341 342 342
Height
5754 5758 5760 5763 5765 5767 5769 5771 5773 5775 5776 5777 5778 5778 5778 5778 5777 5776 5774 5772 5770 5767 5765 5762 5759 5756 5752 5748 5744 5740 5736 5732 5729 5726 5722 5718 5713 5709 5704 5699 5695 5690 5685
5747 5751 5754 5757 5759 5761 5763 5765 5767 5769 5770 5771 5772 5772 5772 5772 5771 5769 5767 5765 5762 5760 5757 5753 5750 5746 5742 5738 5734 5730 5726 5721 5717 5714 5711 5709 5706 5699 5693 5687 5681 5676 5670
5740 5744 5748 5751 5753 5755 5757 5759 5761 5762 5764 5765 5765 5766 5765 5765 5764 5762 5760 5757 5754 5751 5748 5744 5740 5736 5732 5728 5724 5719 5715 5710 5705 5700 5696 5692 5690 5689 5686 5678 5670 5662 5655
5733 5738 5741 5744 5747 5750 5752 5753 5755 5756 5758 5759 5759 5759 5759 5758 5756 5754 5752 5749 5746 5743 5739 5735 5731 5726 5722 5717 5713 5709 5704 5699 5694 5688 5682 5675 5669 5665 5664 5664 5656 5648 5640
5727 5731 5734 5738 5741 5744 5746 5747 5749 5750 5751 5752 5753 5752 5751 5750 5749 5746 5744 5741 5737 5734 5730 5725 5721 5717 5712 5707 5702 5697 5692 5687 5681 5676 5669 5662 5654 5645 5638 5636 5634 5628 5620
5720 5724 5728 5731 5735 5738 5740 5742 5743 5744 5745 5746 5746 5745 5744 5743 5741 5739 5736 5732 5729 5725 5720 5716 5711 5707 5702 5697 5692 5686 5681 5674 5668 5661 5654 5647 5639 5631 5622 5615 5610 5604 5599
5713 5717 5722 5726 5729 5732 5734 5736 5737 5738 5739 5739 5739 5738 5737 5735 5733 5730 5727 5724 5720 5716 5711 5707 5702 5697 5692 5687 5681 5675 5669 5662 5654 5647 5638 5629 5620 5611 5602 5594 5588 5583 5577
5706 5711 5715 5719 5723 5726 5728 5730 5731 5732 5732 5732 5731 5730 5729 5727 5725 5722 5719 5715 5711 5706 5702 5697 5692 5687 5682 5676 5670 5663 5656 5648 5639 5631 5622 5613 5603 5593 5582 5572 5562 5556 5554
5700 5705 5710 5714 5717 5719 5722 5723 5724 5725 5725 5725 5724 5723 5721 5719 5716 5713 5709 5705 5701 5697 5692 5687 5683 5677 5671 5665 5658 5650 5642 5633 5624 5615 5606 5596 5586 5575 5563 5550 5537 5525 5519
5694 5699 5704 5708 5711 5713 5715 5717 5718 5718 5718 5718 5716 5715 5712 5710 5707 5704 5700 5696 5692 5688 5683 5678 5672 5666 5660 5653 5645 5637 5627 5618 5609 5599 5590 5579 5568 5556 5543 5529 5514 5496 5480
5690 5694 5698 5702 5705 5707 5709 5711 5711 5711 5711 5710 5708 5706 5704 5701 5698 5695 5691 5687 5683 5678 5672 5667 5661 5654 5647 5639 5631 5622 5613 5603 5593 5582 5572 5560 5548 5535 5521 5505 5489 5471 5450
5684 5689 5693 5696 5699 5701 5703 5704 5704 5704 5703 5702 5700 5698 5696 5693 5689 5686 5682 5677 5672 5667 5662 5655 5649 5642 5634 5625 5617 5608 5598 5587 5577 5565 5553 5540 5526 5512 5496 5479 5461 5443 5423
5680 5684 5688 5691 5694 5696 5697 5697 5697 5697 5696 5694 5692 5690 5687 5684 5680 5676 5672 5667 5662 5656 5650 5643 5636 5628 5620 5611 5602 5593 5582 5571 5558 5545 5532 5518 5503 5487 5470 5452 5433 5414 5396
5675 5679 5683 5686 5688 5689 5690 5690 5690 5689 5688 5686 5684 5682 5679 5675 5671 5667 5662 5657 5651 5645 5638 5631 5623 5615 5606 5597 5587 5577 5566 5553 5540 5525 5510 5493 5476 5458 5440 5422 5404 5386 5370
5671 5674 5677 5680 5682 5683 5683 5683 5682 5681 5680 5678 5676 5673 5669 5666 5661 5657 5651 5646 5640 5633 5626 5618 5609 5601 5592 5582 5572 5561 5549 5535 5521 5505 5487 5469 5450 5430 5410 5390 5374 5359 5345
5666 5669 5672 5674 5676 5676 5676 5676 5675 5673 5672 5670 5667 5664 5660 5656 5651 5646 5641 5635 5628 5621 5613 5605 5596 5587 5577 5567 5555 5543 5531 5515 5499 5482 5464 5445 5425 5406 5387 5369 5352 5337 5324
5661 5664 5666 5668 5669 5669 5669 5668 5667 5665 5663 5661 5658 5654 5650 5646 5641 5636 5630 5624 5616 5608 5600 5591 5582 5573 5562 5551 5539 5526 5511 5495 5476 5457 5438 5420 5400 5381 5365 5350 5337 5324 5311
5656 5658 5660 5661 5662 5661 5661 5660 5658 5657 5654 5651 5648 5645 5641 5636 5631 5625 5619 5612 5604 5596 5587 5578 5568 5558 5547 5535 5522 5508 5492 5474 5454 5433 5412 5394 5377 5360 5345 5333 5322 5310 5300
5651 5653 5654 5654 5654 5654 5653 5652 5650 5648 5646 5643 5639 5635 5631 5626 5621 5615 5608 5600 5592 5583 5574 5564 5554 5543 5531 5517 5503 5488 5472 5454 5434 5413 5391 5371 5356 5343 5328 5317 5308 5299 5291
5645 5646 5647 5647 5647 5646 5645 5644 5642 5640 5637 5634 5630 5626 5621 5616 5610 5603 5596 5588 5580 5571 5561 5551 5539 5527 5514 5499 5483 5465 5450 5434 5417 5397 5376 5356 5340 5327 5315 5305 5298 5291 5285
5639 5639 5640 5640 5640 5639 5638 5636 5634 5631 5628 5625 5621 5617 5612 5606 5599 5592 5584 5577 5569 5560 5550 5539 5526 5511 5496 5480 5462 5443 5423 5406 5391 5375 5360 5344 5328 5316 5306 5298 5291 5284 5279
5632 5633 5633 5633 5632 5631 5630 5628 5626 5623 5620 5616 5612 5607 5601 5595 5588 5581 5573 5565 5556 5547 5536 5525 5511 5495 5478 5461 5443 5424 5403 5384 5369 5356 5343 5330 5318 5308 5299 5292 5286 5281 5275
5626 5626 5626 5625 5625 5623 5622 5620 5617 5614 5611 5607 5602 5596 5590 5584 5577 5569 5561 5553 5543 5534 5523 5511 5497 5481 5463 5444 5425 5407 5388 5370 5356 5343 5330 5319 5310 5302 5295 5289 5283 5278 5273
5620 5620 5619 5618 5617 5616 5614 5612 5609 5605 5601 5597 5592 5586 5579 5572 5565 5557 5549 5540 5530 5520 5508 5495 5481 5465 5447 5427 5410 5392 5375 5360 5346 5334 5323 5313 5304 5297 5291 5286 5281 5276 5271
5614 5613 5613 5612 5610 5608 5606 5603 5600 5596 5592 5587 5581 5575 5569 5562 5554 5546 5536 5527 5515 5503 5491 5477 5462 5446 5430 5410 5391 5375 5361 5348 5336 5326 5317 5309 5302 5295 5289 5284 5279 5274 5269
5608 5607 5606 5605 5603 5601 5598 5595 5591 5587 5582 5577 5571 5565 5558 5551 5543 5534 5524 5511 5500 5486 5471 5456 5441 5424 5407 5391 5377 5362 5348 5337 5327 5319 5312 5305 5299 5294 5288 5283 5278 5273 5268